Current Version              Previous Version:    01  02  03  04  05  06  07  08  09  10  11  12  13  14  15  16  17  18  19  20  21  22  23  24  25  26  27  28  29  30  
   31  32  33  34  35  36  37  38  39  40  41  42  43  44  45  46  47  48  49  50  51  52  53  54  55  56  57  58  59  60  

[Printable]
858
ASUS44 KEWX 211902
RWRTX
SOUTH TEXAS REGIONAL WEATHER ROUNDUP
NATIONAL WEATHER SERVICE AUSTIN/SAN ANTONIO TX
100 PM CST SUN DEC 21 2014

NOTE: "FAIR" INDICATED FEW OR NO CLOUDS BELOW 12,000 FEET WITH NO
SIGNIFICANT WEATHER AND/OR OBSTRUCTIONS TO VISIBILITY.

* - THESE STATIONS ARE NOT NWS OR FAA STATIONS...AND ARE NOT SUBJECT
    TO NWS AND FAA QUALITY CONTROL.

TXZ171-172-183>190-212000-
TEXAS HILL COUNTRY AND EDWARDS PLATEAU

CITY           SKY/WX    TMP DP  RH WIND       PRES   REMARKS
JUNCTION       CLOUDY    52  46  80 SW13      29.97F
*LLANO         CLOUDY    54  48  82 SW9       30.03F
BURNET         CLOUDY    52  46  80 S10       30.00F
*HORSESHOE BAY CLOUDY    55  47  75 S6        30.00F
*KERRVILLE     CLOUDY    51  48  90 S9        30.00F
*FREDERICKSBRG CLOUDY    50  47  88 SW10      30.00F WCI  46
*ROCKSPRINGS   FOG       46  45  93 S9        30.02F VSB 1/2 WCI  42
*BOERNE STAGE  CLOUDY    54  46  76 SW10G17   30.01F
*CASTROVILLE   CLOUDY    55  47  76 S10       30.05F
HONDO          CLOUDY    53  47  79 SW12      30.04F
*UVALDE        CLOUDY    50  46  87 SW7       30.03F WCI  47
DEL RIO        CLOUDY    53  48  83 SE7       30.00F
LAUGHLIN AFB   CLOUDY    52  48  87 SW9       30.00
CARRIZO SPRGS  CLOUDY    54  50  87 S3        30.02F
$$

TXZ173-191>194-202-209-217>225-228-212000-
CENTRAL AND SOUTH CENTRAL TEXAS

CITY           SKY/WX    TMP DP  RH WIND       PRES   REMARKS
GEORGETOWN     CLOUDY    54  45  71 S9        29.99F
AUSTIN/BERGSTM CLOUDY    55  47  74 S9        30.01F
AUSTIN/MABRY   CLOUDY    55  47  74 SE6       30.01F
*AUSTIN/EXEC   CLOUDY    54  46  76 S7        30.03F
*LAGO VISTA    CLOUDY    52  48  84 S8        30.00F
SAN MARCOS     CLOUDY    55  46  71 SW9       30.03F
NEW BRAUNFELS  CLOUDY    55  50  83 SW6       30.01F
RANDOLPH AFB   CLOUDY    54  51  92 S8        30.00F
PT SAN ANTONIO CLOUDY    54  50  85 SW7       30.00F
SAN ANTONIO    CLOUDY    55  50  83 S9        30.02F
STINSON FIELD  CLOUDY    54  52  93 S7        30.00F
*PLEASANTON    CLOUDY    54  52  95 S3        30.04F FOG
*LA GRANGE     CLOUDY    56  50  82 CALM      30.02F
*GIDDINGS      CLOUDY    53  47  82 CALM      30.06F
*GONZALES      NOT AVBL
$$

TXZ163>164-176>182-195>201-210>213-226-227-235-212000-
SOUTHEAST TEXAS

CITY           SKY/WX    TMP DP  RH WIND       PRES   REMARKS
COLLEGE STN    CLOUDY    53  47  79 SW6       30.03F
*BRYAN         CLOUDY    53  46  76 S6        30.04F
*CALDWELL      CLOUDY    52  48  87 S6        30.07F
*CROCKETT      CLOUDY    55  48  76 SE6       30.08F
*BRENHAM       CLOUDY    55  49  80 S6        30.04F
HUNTSVILLE     CLOUDY    55  46  71 VRB5      30.02F
CONROE         PTSUNNY   56  47  71 CALM      30.03F
HOUSTON BUSH   PTSUNNY   59  48  67 E5        30.02F
HOUSTON HOBBY  PTSUNNY   60  49  66 NE6       30.02F
*HOUSTON SW AP CLOUDY    53  46  74 CALM      30.02F
PEARLAND       PTSUNNY   61  49  64 E7        30.03F
HOUSTON HOOKS  CLOUDY    58  47  66 E5        30.03F
ELLINGTON FLD  PTSUNNY   61  50  67 E3        30.04F
SUGAR LAND     CLOUDY    58  48  69 E3        30.02F
*HOUSTON EXEC  CLOUDY    57  48  72 CALM      30.03F HAZE
*CLEVELAND MUN PTSUNNY   60  50  70 E3        30.04F
*WHARTON       CLOUDY    58  51  77 N3        30.03F
*COLUMBUS      CLOUDY    57  50  77 CALM      30.02F
$$

TXZ214>216-236>238-212000-
THE UPPER TEXAS COAST

CITY           SKY/WX    TMP DP  RH WIND       PRES   REMARKS
*ORANGE        CLOUDY    54  49  83 CALM      30.08F
PORT ARTHUR    CLOUDY    56  49  77 VRB3      30.05F
GALVESTON      CLOUDY    58  51  78 NE8       30.04F
ANGLETON       CLOUDY    58  52  80 E8        30.02F
*BAY CITY        N/A     59  54  83 CALM      30.02F
PALACIOS       CLOUDY    58  52  80 E8        30.02F
$$

TXZ229>234-239>247-212000-
TEXAS COASTAL BEND AND RIO GRANDE PLAINS

CITY           SKY/WX    TMP DP  RH WIND       PRES   REMARKS
VICTORIA       MOSUNNY   61  51  70 VRB5      30.03F
*BEEVILLE      CLOUDY    59  53  82 CALM      30.03F
ROCKPORT       CLOUDY    59  51  75 NE7       30.02F
*PORT ARANSAS  CLOUDY    58  54  85 NE10      30.03F
*PORT LAVACA   CLOUDY    58  53  84 NE5       30.03F
*INGLESIDE     CLOUDY    58  51  76 E7        30.03F
CORPUS CHRISTI CLOUDY    59  53  80 NE8       30.02F
CORPUS NAS     CLOUDY    60  55  83 NE13      30.01F
*ROBSTOWN      CLOUDY    60  55  85 NE6       30.04F
ALICE          CLOUDY    59  53  80 E6        30.02F
KINGSVILLE NAS CLOUDY    59  56  89 N8        30.02F
COTULLA        CLOUDY    56  50  80 W5        30.04F
LAREDO         NOT AVBL
$$

TXZ248>255-212000-
DEEP SOUTH TEXAS

CITY           SKY/WX    TMP DP  RH WIND       PRES   REMARKS
BROWNSVILLE    CLOUDY    65  59  81 N12       30.00F
PORT ISABEL    CLOUDY    63  60  90 N14       29.99F FOG
*SOUTH PADRE   SUNNY     64  63  94 E9        30.00F
HARLINGEN      CLOUDY    63  58  83 N9        30.00F
*HEBBRONVILLE  CLOUDY    58  52  81 CALM      30.04F
MCALLEN        CLOUDY    60  56  86 N6        30.03F
*WESLACO       CLOUDY    61  56  83 N3        30.02F HAZE
FALFURRIAS     CLOUDY    58  53  84 NE5       30.03F
EDINBURG       CLOUDY    62  55  77 N3        30.03F
*ZAPATA        PTSUNNY   65  54  69 SE3       30.03F
$$

TXZ213>215-236>238-242>244-246-247-251-254-255-212000-
CMAN STATIONS

STATION/POSITION TIME  TEMP    WIND        PRES    WAVE
                       AIR SEA DIR/SP/G            HT/PER
                 (UTC) (F)     (DEG/KT/KT) (MB)    (FT/S)
SABINE PASS      1800   54 58  330/  4/  6 1018.0
SEA RIM ST PARK  1800   52     360/  5/  7 1019.4
NORTH JETTY/GLS  1800   55 59   90/  9/ 10   N/A
EAGLE POINT      1800   54 58   60/  9/ 10 1017.5
MORGANS POINT    1800   57      80/  2/  5 1017.3
MISSION/ARANSAS  1800   56      40/  9     1019.0
PORT O`CONNOR    1800           30/  8/  9   N/A
PORT ARANSAS     1800   57 62   20/ 12/ 13 1017.9
MALAQUITE BEACH  1800   58 65   20/ 14/ 16 1016.2
BAFFIN BAY       1800   58      20/ 11/ 14 1016.7
PORT ISABEL      1800   62 65  330/ 10/ 15 1016.0
$$

GMZ080-GMZ150>470-212000-
OFFSHORE BUOY REPORTS

STATION/POSITION TIME  TEMP    WIND        PRES    WAVE
                       AIR SEA DIR/SP/G            HT/PER
                 (UTC) (F)     (DEG/KT/KT) (MB)    (FT/S)
20 E GALVESTON   1900   55 64   40/  6/ 10 1017.0    2/ 6
90 E PT ARANSAS  1900   64 73   30/ 10/ 14 1016.3    3/ 6
35 NE PT MANSFLD 1800   67 73   50/ 14/ 16 1016.7    4/ 7
200 E PT ISABEL  1800   72 73   90/ 16/ 17 1014.9    4/ 6
$$